TimeCST,TemperatureF,Dew PointF,Humidity,Sea Level PressureIn,VisibilityMPH,Wind Direction,Wind SpeedMPH,Gust SpeedMPH,PrecipitationIn,Events,Conditions,WindDirDegrees,DateUTC
12:56 AM,34.0,25.0,70,30.28,10.0,NNW,4.6,-,N/A,,Clear,330,2013-02-20 06:56:00
1:56 AM,34.0,24.1,67,30.29,10.0,Calm,Calm,-,N/A,,Clear,0,2013-02-20 07:56:00
2:56 AM,30.0,26.1,85,30.31,10.0,Calm,Calm,-,N/A,,Clear,0,2013-02-20 08:56:00
3:56 AM,30.9,25.0,79,30.30,10.0,Calm,Calm,-,N/A,,Clear,0,2013-02-20 09:56:00
4:56 AM,28.9,26.1,89,30.29,10.0,Calm,Calm,-,N/A,,Clear,0,2013-02-20 10:56:00
5:56 AM,32.0,27.0,82,30.28,10.0,North,3.5,-,N/A,,Mostly Cloudy,10,2013-02-20 11:56:00
6:56 AM,36.0,24.1,62,30.28,10.0,Calm,Calm,-,N/A,,Scattered Clouds,0,2013-02-20 12:56:00
7:56 AM,37.9,26.1,62,30.31,10.0,North,4.6,-,N/A,,Scattered Clouds,10,2013-02-20 13:56:00
8:56 AM,41.0,23.0,49,30.35,10.0,North,6.9,-,N/A,,Overcast,10,2013-02-20 14:56:00
9:56 AM,43.0,21.9,43,30.34,10.0,NNE,8.1,-,N/A,,Clear,20,2013-02-20 15:56:00
10:56 AM,44.1,21.0,40,30.34,10.0,North,8.1,-,N/A,,Mostly Cloudy,360,2013-02-20 16:56:00
11:56 AM,45.0,21.9,40,30.32,10.0,North,5.8,-,N/A,,Mostly Cloudy,360,2013-02-20 17:56:00
12:56 PM,45.0,18.0,34,30.28,10.0,North,6.9,-,N/A,,Mostly Cloudy,10,2013-02-20 18:56:00
1:56 PM,46.0,19.9,35,30.24,10.0,NE,6.9,-,N/A,,Partly Cloudy,40,2013-02-20 19:56:00
2:56 PM,48.0,19.0,32,30.23,10.0,ENE,5.8,-,N/A,,Mostly Cloudy,60,2013-02-20 20:56:00
3:56 PM,48.9,17.1,28,30.23,10.0,NE,6.9,-,N/A,,Partly Cloudy,50,2013-02-20 21:56:00
4:56 PM,48.9,17.1,28,30.22,10.0,NE,4.6,-,N/A,,Partly Cloudy,40,2013-02-20 22:56:00
5:56 PM,45.0,19.0,36,30.22,10.0,NNE,3.5,-,N/A,,Partly Cloudy,30,2013-02-20 23:56:00
6:56 PM,39.9,23.0,51,30.21,10.0,Calm,Calm,-,N/A,,Partly Cloudy,0,2013-02-21 00:56:00
7:56 PM,37.0,26.1,65,30.22,10.0,North,3.5,-,N/A,,Clear,360,2013-02-21 01:56:00
8:56 PM,39.9,21.9,49,30.21,10.0,NE,5.8,-,N/A,,Mostly Cloudy,50,2013-02-21 02:56:00
9:56 PM,41.0,23.0,49,30.20,10.0,ENE,5.8,-,N/A,,Overcast,70,2013-02-21 03:56:00
10:56 PM,39.0,21.9,50,30.19,10.0,NNE,4.6,-,N/A,,Mostly Cloudy,30,2013-02-21 04:56:00
11:56 PM,39.0,23.0,53,30.17,10.0,ENE,6.9,-,N/A,,Overcast,70,2013-02-21 05:56:00